FW8660 Weather Reports


time (UTC)temp
C
wind
direction
speed
KPH
gust
KPH
rain 1hr
cm
rain 24hr
cm
rain mn
cm
humidity
%
barometer
mb
20260507013028 15 110 4.8 9.7 0.00 0.00 0.00 82 1012.0
20260507011531 15 101 4.8 9.7 0.00 0.00 0.00 82 1011.8
20260507010043 15 103 4.8 9.7 0.00 0.00 0.00 83 1011.7
20260507004533 15 100 4.8 9.7 0.00 0.00 0.00 83 1011.8
20260507003029 15 82 4.8 11.3 0.00 0.00 0.00 83 1011.8
20260507001531 15 93 4.8 9.7 0.00 0.00 0.00 84 1011.9
20260507000028 15 71 4.8 8.0 0.00 0.00 0.00 84 1012.1
20260506234531 16 95 4.8 11.3 0.00 0.00 0.00 84 1012.2
20260506233030 16 73 4.8 9.7 0.00 0.00 0.00 84 1012.3
20260506231531 16 82 4.8 8.0 0.00 0.00 0.00 84 1012.4
20260506230039 16 74 4.8 11.3 0.00 0.00 0.00 84 1012.3
20260506224536 16 90 3.2 8.0 0.00 0.00 0.00 84 1012.3
20260506223030 16 70 4.8 8.0 0.00 0.00 0.00 84 1012.3
20260506221528 16 62 3.2 8.0 0.00 0.00 0.00 84 1012.4
20260506220035 16 60 1.6 4.8 0.00 0.00 0.00 83 1012.3
20260506214529 16 110 3.2 6.4 0.00 0.00 0.00 83 1012.5
20260506213030 16 110 3.2 12.9 0.00 0.00 0.00 83 1012.7
20260506211533 16 80 4.8 8.0 0.00 0.00 0.00 83 1012.7
20260506210031 16 65 3.2 8.0 0.00 0.00 0.00 82 1012.7
20260506204534 16 64 4.8 8.0 0.00 0.00 0.00 82 1012.6
20260506203031 16 83 4.8 11.3 0.00 0.00 0.00 81 1012.5
20260506201537 16 83 4.8 12.9 0.00 0.00 0.00 81 1012.3
20260506200030 17 91 6.4 11.3 0.00 0.00 0.00 80 1012.0
20260506194528 17 80 8.0 19.3 0.00 0.00 0.00 80 1011.8
20260506193027 17 90 12.9 19.3 0.00 0.00 0.00 79 1011.8
20260506191530 17 80 11.3 19.3 0.00 0.00 0.00 77 1011.6
20260506190030 17 97 12.9 22.5 0.00 0.00 0.00 77 1011.6
20260506184532 17 88 16.1 24.1 0.00 0.00 0.00 76 1011.3
20260506183032 18 84 12.9 24.1 0.00 0.00 0.00 74 1011.2
20260506181531 18 101 16.1 24.1 0.00 0.00 0.00 73 1011.1
20260506180032 18 85 8.0 24.1 0.00 0.00 0.00 73 1011.2
20260506174533 18 76 16.1 29.0 0.00 0.00 0.00 72 1011.1
20260506173030 18 98 16.1 29.0 0.00 0.00 0.00 72 1011.0
20260506171539 18 148 12.9 27.4 0.00 0.00 0.00 71 1010.9
20260506170029 18 121 9.7 19.3 0.00 0.00 0.00 71 1011.0
20260506164531 19 148 16.1 29.0 0.00 0.00 0.00 69 1010.9
20260506163030 19 105 11.3 24.1 0.00 0.00 0.00 68 1010.7
20260506161532 18 96 19.3 35.4 0.00 0.00 0.00 69 1010.6
20260506160030 19 131 16.1 33.8 0.00 0.00 0.00 67 1010.7
20260506154534 20 131 14.5 30.6 0.00 0.00 0.00 67 1010.4
20260506153030 20 124 14.5 37.0 0.00 0.00 0.00 68 1010.6
20260506151533 20 105 19.3 30.6 0.00 0.00 0.00 67 1010.8
20260506150028 20 99 25.7 35.4 0.00 0.00 0.00 67 1010.7
20260506144531 20 105 25.7 37.0 0.00 0.00 0.00 68 1010.7
20260506143032 20 119 27.4 43.5 0.00 0.00 0.00 68 1010.7
20260506141528 20 128 24.1 41.8 0.00 0.00 0.00 68 1010.8
20260506140033 21 132 17.7 35.4 0.00 0.00 0.00 67 1011.0
20260506134528 20 135 19.3 33.8 0.00 0.00 0.00 67 1011.1
20260506133031 20 158 22.5 43.5 0.00 0.00 0.00 67 1011.1
20260506131534 21 118 16.1 37.0 0.00 0.00 0.00 66 1011.1
20260506130028 21 105 19.3 41.8 0.00 0.00 0.00 66 1011.1
20260506124533 21 88 16.1 40.2 0.00 0.00 0.00 63 1011.3
20260506123030 21 154 14.5 32.2 0.00 0.00 0.00 64 1011.4
20260506121529 21 142 16.1 37.0 0.00 0.00 0.00 65 1011.4
20260506120032 21 107 17.7 33.8 0.00 0.00 0.00 63 1011.6
20260506114536 21 104 19.3 30.6 0.00 0.00 0.00 62 1011.7
20260506113028 21 109 17.7 35.4 0.00 0.00 0.00 63 1011.8
20260506111527 21 82 14.5 27.4 0.00 0.00 0.00 64 1011.9
20260506110034 21 96 12.9 30.6 0.00 0.00 0.00 61 1011.9
20260506104531 21 78 16.1 29.0 0.00 0.00 0.00 62 1012.0
20260506103030 21 99 19.3 29.0 0.00 0.00 0.00 59 1012.1
20260506101530 20 66 11.3 22.5 0.00 0.00 0.00 62 1012.2
20260506100027 20 62 14.5 22.5 0.00 0.00 0.00 60 1012.2
20260506094531 20 33 8.0 19.3 0.00 0.00 0.00 66 1012.2
20260506093028 20 70 14.5 29.0 0.00 0.00 0.00 65 1012.1
20260506091529 19 50 12.9 19.3 0.00 0.00 0.00 67 1011.9
20260506090030 20 28 4.8 16.1 0.00 0.00 0.00 66 1011.9
20260506084529 18 0 1.6 6.4 0.00 0.00 0.00 66 1011.9
20260506083028 18 331 1.6 6.4 0.00 0.00 0.00 66 1011.9
20260506081528 17 237 4.8 11.3 0.00 0.00 0.00 65 1012.0
20260506073030 16 261 6.4 11.3 0.00 0.00 0.00 64 1011.9
20260506071531 16 273 8.0 12.9 0.00 0.00 0.00 65 1011.8
20260506061530 14 0 0.0 3.2 0.00 0.00 0.00 71 1011.7
20260506044536 13 59 1.6 4.8 0.00 0.00 0.00 72 1010.9
20260506043028 13 277 0.0 6.4 0.00 0.00 0.00 73 1010.8
20260506041528 13 281 1.6 4.8 0.00 0.00 0.00 74 1010.7
20260506040030 13 0 0.0 4.8 0.00 0.00 0.00 74 1010.7
20260506034530 13 268 0.0 3.2 0.00 0.00 0.00 74 1010.8
20260506033033 13 0 0.0 6.4 0.00 0.00 0.00 75 1010.9
20260506031535 13 0 0.0 3.2 0.00 0.00 0.00 75 1010.9
20260506030051 13 0 0.0 1.6 0.00 0.00 0.00 76 1010.8
20260506024530 13 0 0.0 1.6 0.00 0.00 0.00 76 1010.9
20260506023030 13 0 0.0 4.8 0.00 0.00 0.00 77 1010.8
20260506021532 13 0 0.0 3.2 0.00 0.00 0.00 78 1010.8
20260506020032 13 0 0.0 3.2 0.00 0.00 0.00 78 1011.0
20260506014528 14 289 1.6 4.8 0.00 0.00 0.00 79 1011.0